Location: Oroua River
(40.4333°S, 175.4333°E)
Time: 11:25:29
(UTC+00:00)

MSX - Pass Details

Date: 26 September 2023
Orbit: 895 x 904 km, 99.0° (Epoch: 06 December)

Event Time Altitude Azimuth Distance (km) Brightness Sun altitude
Exits shadow 12:46:34 13° 175° (S) 2,417 6.5 -47.5°
Drops below altitude 10° 12:47:09 10° 178° (S) 2,618 6.8 -47.4°
Sets 12:49:44 0° 185° (S) 3,567 7.6 -47.3°
